start;end;baseprice;unit
01.04.2020 00:00:00;01.04.2020 01:00:00;2.23;Cent/kWh
01.04.2020 01:00:00;01.04.2020 02:00:00;2.02;Cent/kWh
01.04.2020 02:00:00;01.04.2020 03:00:00;1.97;Cent/kWh
01.04.2020 03:00:00;01.04.2020 04:00:00;1.93;Cent/kWh
01.04.2020 04:00:00;01.04.2020 05:00:00;1.93;Cent/kWh
01.04.2020 05:00:00;01.04.2020 06:00:00;2.08;Cent/kWh
01.04.2020 06:00:00;01.04.2020 07:00:00;2.54;Cent/kWh
01.04.2020 07:00:00;01.04.2020 08:00:00;2.72;Cent/kWh
01.04.2020 08:00:00;01.04.2020 09:00:00;2.80;Cent/kWh
01.04.2020 09:00:00;01.04.2020 10:00:00;2.55;Cent/kWh
01.04.2020 10:00:00;01.04.2020 11:00:00;2.20;Cent/kWh
01.04.2020 11:00:00;01.04.2020 12:00:00;2.10;Cent/kWh
01.04.2020 12:00:00;01.04.2020 13:00:00;1.99;Cent/kWh
01.04.2020 13:00:00;01.04.2020 14:00:00;1.99;Cent/kWh
01.04.2020 14:00:00;01.04.2020 15:00:00;1.89;Cent/kWh
01.04.2020 15:00:00;01.04.2020 16:00:00;1.81;Cent/kWh
01.04.2020 16:00:00;01.04.2020 17:00:00;1.91;Cent/kWh
01.04.2020 17:00:00;01.04.2020 18:00:00;2.20;Cent/kWh
01.04.2020 18:00:00;01.04.2020 19:00:00;2.69;Cent/kWh
01.04.2020 19:00:00;01.04.2020 20:00:00;3.13;Cent/kWh
01.04.2020 20:00:00;01.04.2020 21:00:00;3.50;Cent/kWh
01.04.2020 21:00:00;01.04.2020 22:00:00;2.89;Cent/kWh
01.04.2020 22:00:00;01.04.2020 23:00:00;2.83;Cent/kWh
01.04.2020 23:00:00;02.04.2020 00:00:00;2.64;Cent/kWh
02.04.2020 00:00:00;02.04.2020 01:00:00;2.42;Cent/kWh
02.04.2020 01:00:00;02.04.2020 02:00:00;2.29;Cent/kWh
02.04.2020 02:00:00;02.04.2020 03:00:00;2.18;Cent/kWh
02.04.2020 03:00:00;02.04.2020 04:00:00;2.10;Cent/kWh
02.04.2020 04:00:00;02.04.2020 05:00:00;2.08;Cent/kWh
02.04.2020 05:00:00;02.04.2020 06:00:00;2.26;Cent/kWh
02.04.2020 06:00:00;02.04.2020 07:00:00;2.53;Cent/kWh
02.04.2020 07:00:00;02.04.2020 08:00:00;2.73;Cent/kWh
02.04.2020 08:00:00;02.04.2020 09:00:00;2.78;Cent/kWh
02.04.2020 09:00:00;02.04.2020 10:00:00;2.50;Cent/kWh
02.04.2020 10:00:00;02.04.2020 11:00:00;2.29;Cent/kWh
02.04.2020 11:00:00;02.04.2020 12:00:00;2.40;Cent/kWh
02.04.2020 12:00:00;02.04.2020 13:00:00;2.29;Cent/kWh
02.04.2020 13:00:00;02.04.2020 14:00:00;2.18;Cent/kWh
02.04.2020 14:00:00;02.04.2020 15:00:00;2.18;Cent/kWh
02.04.2020 15:00:00;02.04.2020 16:00:00;2.18;Cent/kWh
02.04.2020 16:00:00;02.04.2020 17:00:00;2.10;Cent/kWh
02.04.2020 17:00:00;02.04.2020 18:00:00;2.25;Cent/kWh
02.04.2020 18:00:00;02.04.2020 19:00:00;2.27;Cent/kWh
02.04.2020 19:00:00;02.04.2020 20:00:00;2.58;Cent/kWh
02.04.2020 20:00:00;02.04.2020 21:00:00;2.73;Cent/kWh
02.04.2020 21:00:00;02.04.2020 22:00:00;2.45;Cent/kWh
02.04.2020 22:00:00;02.04.2020 23:00:00;2.50;Cent/kWh
02.04.2020 23:00:00;03.04.2020 00:00:00;2.21;Cent/kWh
03.04.2020 00:00:00;03.04.2020 01:00:00;2.18;Cent/kWh
03.04.2020 01:00:00;03.04.2020 02:00:00;1.89;Cent/kWh
03.04.2020 02:00:00;03.04.2020 03:00:00;1.82;Cent/kWh
03.04.2020 03:00:00;03.04.2020 04:00:00;1.82;Cent/kWh
03.04.2020 04:00:00;03.04.2020 05:00:00;1.85;Cent/kWh
03.04.2020 05:00:00;03.04.2020 06:00:00;1.85;Cent/kWh
03.04.2020 06:00:00;03.04.2020 07:00:00;2.38;Cent/kWh
03.04.2020 07:00:00;03.04.2020 08:00:00;2.61;Cent/kWh
03.04.2020 08:00:00;03.04.2020 09:00:00;2.65;Cent/kWh
03.04.2020 09:00:00;03.04.2020 10:00:00;2.55;Cent/kWh
03.04.2020 10:00:00;03.04.2020 11:00:00;2.30;Cent/kWh
03.04.2020 11:00:00;03.04.2020 12:00:00;2.10;Cent/kWh
03.04.2020 12:00:00;03.04.2020 13:00:00;2.02;Cent/kWh
03.04.2020 13:00:00;03.04.2020 14:00:00;1.77;Cent/kWh
03.04.2020 14:00:00;03.04.2020 15:00:00;1.71;Cent/kWh
03.04.2020 15:00:00;03.04.2020 16:00:00;1.70;Cent/kWh
03.04.2020 16:00:00;03.04.2020 17:00:00;1.71;Cent/kWh
03.04.2020 17:00:00;03.04.2020 18:00:00;2.00;Cent/kWh
03.04.2020 18:00:00;03.04.2020 19:00:00;2.56;Cent/kWh
03.04.2020 19:00:00;03.04.2020 20:00:00;2.84;Cent/kWh
03.04.2020 20:00:00;03.04.2020 21:00:00;3.35;Cent/kWh
03.04.2020 21:00:00;03.04.2020 22:00:00;2.72;Cent/kWh
03.04.2020 22:00:00;03.04.2020 23:00:00;2.92;Cent/kWh
03.04.2020 23:00:00;04.04.2020 00:00:00;2.80;Cent/kWh
04.04.2020 00:00:00;04.04.2020 01:00:00;2.51;Cent/kWh
04.04.2020 01:00:00;04.04.2020 02:00:00;2.30;Cent/kWh
04.04.2020 02:00:00;04.04.2020 03:00:00;2.11;Cent/kWh
04.04.2020 03:00:00;04.04.2020 04:00:00;2.01;Cent/kWh
04.04.2020 04:00:00;04.04.2020 05:00:00;1.98;Cent/kWh
04.04.2020 05:00:00;04.04.2020 06:00:00;1.96;Cent/kWh
04.04.2020 06:00:00;04.04.2020 07:00:00;2.18;Cent/kWh
04.04.2020 07:00:00;04.04.2020 08:00:00;2.30;Cent/kWh
04.04.2020 08:00:00;04.04.2020 09:00:00;2.20;Cent/kWh
04.04.2020 09:00:00;04.04.2020 10:00:00;1.90;Cent/kWh
04.04.2020 10:00:00;04.04.2020 11:00:00;1.50;Cent/kWh
04.04.2020 11:00:00;04.04.2020 12:00:00;1.31;Cent/kWh
04.04.2020 12:00:00;04.04.2020 13:00:00;1.43;Cent/kWh
04.04.2020 13:00:00;04.04.2020 14:00:00;1.08;Cent/kWh
04.04.2020 14:00:00;04.04.2020 15:00:00;1.00;Cent/kWh
04.04.2020 15:00:00;04.04.2020 16:00:00;0.99;Cent/kWh
04.04.2020 16:00:00;04.04.2020 17:00:00;1.57;Cent/kWh
04.04.2020 17:00:00;04.04.2020 18:00:00;2.15;Cent/kWh
04.04.2020 18:00:00;04.04.2020 19:00:00;2.57;Cent/kWh
04.04.2020 19:00:00;04.04.2020 20:00:00;3.31;Cent/kWh
04.04.2020 20:00:00;04.04.2020 21:00:00;3.05;Cent/kWh
04.04.2020 21:00:00;04.04.2020 22:00:00;2.39;Cent/kWh
04.04.2020 22:00:00;04.04.2020 23:00:00;2.15;Cent/kWh
04.04.2020 23:00:00;05.04.2020 00:00:00;1.71;Cent/kWh
05.04.2020 00:00:00;05.04.2020 01:00:00;1.80;Cent/kWh
05.04.2020 01:00:00;05.04.2020 02:00:00;1.14;Cent/kWh
05.04.2020 02:00:00;05.04.2020 03:00:00;0.98;Cent/kWh
05.04.2020 03:00:00;05.04.2020 04:00:00;0.99;Cent/kWh
05.04.2020 04:00:00;05.04.2020 05:00:00;0.82;Cent/kWh
05.04.2020 05:00:00;05.04.2020 06:00:00;0.53;Cent/kWh
05.04.2020 06:00:00;05.04.2020 07:00:00;0.55;Cent/kWh
05.04.2020 07:00:00;05.04.2020 08:00:00;0.55;Cent/kWh
05.04.2020 08:00:00;05.04.2020 09:00:00;0.81;Cent/kWh
05.04.2020 09:00:00;05.04.2020 10:00:00;0.58;Cent/kWh
05.04.2020 10:00:00;05.04.2020 11:00:00;0.51;Cent/kWh
05.04.2020 11:00:00;05.04.2020 12:00:00;0.70;Cent/kWh
05.04.2020 12:00:00;05.04.2020 13:00:00;0.70;Cent/kWh
05.04.2020 13:00:00;05.04.2020 14:00:00;0.52;Cent/kWh
05.04.2020 14:00:00;05.04.2020 15:00:00;-2.40;Cent/kWh
05.04.2020 15:00:00;05.04.2020 16:00:00;-2.79;Cent/kWh
05.04.2020 16:00:00;05.04.2020 17:00:00;-0.49;Cent/kWh
05.04.2020 17:00:00;05.04.2020 18:00:00;0.45;Cent/kWh
05.04.2020 18:00:00;05.04.2020 19:00:00;1.65;Cent/kWh
05.04.2020 19:00:00;05.04.2020 20:00:00;1.99;Cent/kWh
05.04.2020 20:00:00;05.04.2020 21:00:00;1.87;Cent/kWh
05.04.2020 21:00:00;05.04.2020 22:00:00;1.31;Cent/kWh
05.04.2020 22:00:00;05.04.2020 23:00:00;1.21;Cent/kWh
05.04.2020 23:00:00;06.04.2020 00:00:00;0.91;Cent/kWh
06.04.2020 00:00:00;06.04.2020 01:00:00;0.80;Cent/kWh
06.04.2020 01:00:00;06.04.2020 02:00:00;0.44;Cent/kWh
06.04.2020 02:00:00;06.04.2020 03:00:00;0.63;Cent/kWh
06.04.2020 03:00:00;06.04.2020 04:00:00;0.37;Cent/kWh
06.04.2020 04:00:00;06.04.2020 05:00:00;0.37;Cent/kWh
06.04.2020 05:00:00;06.04.2020 06:00:00;1.23;Cent/kWh
06.04.2020 06:00:00;06.04.2020 07:00:00;1.67;Cent/kWh
06.04.2020 07:00:00;06.04.2020 08:00:00;2.18;Cent/kWh
06.04.2020 08:00:00;06.04.2020 09:00:00;2.16;Cent/kWh
06.04.2020 09:00:00;06.04.2020 10:00:00;1.87;Cent/kWh
06.04.2020 10:00:00;06.04.2020 11:00:00;1.57;Cent/kWh
06.04.2020 11:00:00;06.04.2020 12:00:00;1.52;Cent/kWh
06.04.2020 12:00:00;06.04.2020 13:00:00;1.40;Cent/kWh
06.04.2020 13:00:00;06.04.2020 14:00:00;1.06;Cent/kWh
06.04.2020 14:00:00;06.04.2020 15:00:00;1.00;Cent/kWh
06.04.2020 15:00:00;06.04.2020 16:00:00;1.18;Cent/kWh
06.04.2020 16:00:00;06.04.2020 17:00:00;1.48;Cent/kWh
06.04.2020 17:00:00;06.04.2020 18:00:00;2.17;Cent/kWh
06.04.2020 18:00:00;06.04.2020 19:00:00;3.10;Cent/kWh
06.04.2020 19:00:00;06.04.2020 20:00:00;4.33;Cent/kWh
06.04.2020 20:00:00;06.04.2020 21:00:00;4.10;Cent/kWh
06.04.2020 21:00:00;06.04.2020 22:00:00;3.09;Cent/kWh
06.04.2020 22:00:00;06.04.2020 23:00:00;2.89;Cent/kWh
06.04.2020 23:00:00;07.04.2020 00:00:00;2.42;Cent/kWh
07.04.2020 00:00:00;07.04.2020 01:00:00;2.01;Cent/kWh
07.04.2020 01:00:00;07.04.2020 02:00:00;2.00;Cent/kWh
07.04.2020 02:00:00;07.04.2020 03:00:00;2.06;Cent/kWh
07.04.2020 03:00:00;07.04.2020 04:00:00;2.05;Cent/kWh
07.04.2020 04:00:00;07.04.2020 05:00:00;2.17;Cent/kWh
07.04.2020 05:00:00;07.04.2020 06:00:00;2.39;Cent/kWh
07.04.2020 06:00:00;07.04.2020 07:00:00;3.20;Cent/kWh
07.04.2020 07:00:00;07.04.2020 08:00:00;3.49;Cent/kWh
07.04.2020 08:00:00;07.04.2020 09:00:00;3.13;Cent/kWh
07.04.2020 09:00:00;07.04.2020 10:00:00;2.37;Cent/kWh
07.04.2020 10:00:00;07.04.2020 11:00:00;1.92;Cent/kWh
07.04.2020 11:00:00;07.04.2020 12:00:00;1.81;Cent/kWh
07.04.2020 12:00:00;07.04.2020 13:00:00;1.76;Cent/kWh
07.04.2020 13:00:00;07.04.2020 14:00:00;1.35;Cent/kWh
07.04.2020 14:00:00;07.04.2020 15:00:00;1.29;Cent/kWh
07.04.2020 15:00:00;07.04.2020 16:00:00;1.55;Cent/kWh
07.04.2020 16:00:00;07.04.2020 17:00:00;1.80;Cent/kWh
07.04.2020 17:00:00;07.04.2020 18:00:00;2.27;Cent/kWh
07.04.2020 18:00:00;07.04.2020 19:00:00;2.97;Cent/kWh
07.04.2020 19:00:00;07.04.2020 20:00:00;3.81;Cent/kWh
07.04.2020 20:00:00;07.04.2020 21:00:00;3.54;Cent/kWh
07.04.2020 21:00:00;07.04.2020 22:00:00;2.60;Cent/kWh
07.04.2020 22:00:00;07.04.2020 23:00:00;2.38;Cent/kWh
07.04.2020 23:00:00;08.04.2020 00:00:00;1.91;Cent/kWh
08.04.2020 00:00:00;08.04.2020 01:00:00;2.12;Cent/kWh
08.04.2020 01:00:00;08.04.2020 02:00:00;2.05;Cent/kWh
08.04.2020 02:00:00;08.04.2020 03:00:00;1.97;Cent/kWh
08.04.2020 03:00:00;08.04.2020 04:00:00;1.99;Cent/kWh
08.04.2020 04:00:00;08.04.2020 05:00:00;2.01;Cent/kWh
08.04.2020 05:00:00;08.04.2020 06:00:00;2.32;Cent/kWh
08.04.2020 06:00:00;08.04.2020 07:00:00;2.93;Cent/kWh
08.04.2020 07:00:00;08.04.2020 08:00:00;2.97;Cent/kWh
08.04.2020 08:00:00;08.04.2020 09:00:00;2.91;Cent/kWh
08.04.2020 09:00:00;08.04.2020 10:00:00;2.59;Cent/kWh
08.04.2020 10:00:00;08.04.2020 11:00:00;2.20;Cent/kWh
08.04.2020 11:00:00;08.04.2020 12:00:00;2.17;Cent/kWh
08.04.2020 12:00:00;08.04.2020 13:00:00;1.91;Cent/kWh
08.04.2020 13:00:00;08.04.2020 14:00:00;1.79;Cent/kWh
08.04.2020 14:00:00;08.04.2020 15:00:00;1.76;Cent/kWh
08.04.2020 15:00:00;08.04.2020 16:00:00;1.95;Cent/kWh
08.04.2020 16:00:00;08.04.2020 17:00:00;2.16;Cent/kWh
08.04.2020 17:00:00;08.04.2020 18:00:00;2.59;Cent/kWh
08.04.2020 18:00:00;08.04.2020 19:00:00;3.37;Cent/kWh
08.04.2020 19:00:00;08.04.2020 20:00:00;4.65;Cent/kWh
08.04.2020 20:00:00;08.04.2020 21:00:00;4.76;Cent/kWh
08.04.2020 21:00:00;08.04.2020 22:00:00;3.68;Cent/kWh
08.04.2020 22:00:00;08.04.2020 23:00:00;3.00;Cent/kWh
08.04.2020 23:00:00;09.04.2020 00:00:00;2.73;Cent/kWh
09.04.2020 00:00:00;09.04.2020 01:00:00;2.27;Cent/kWh
09.04.2020 01:00:00;09.04.2020 02:00:00;2.13;Cent/kWh
09.04.2020 02:00:00;09.04.2020 03:00:00;2.11;Cent/kWh
09.04.2020 03:00:00;09.04.2020 04:00:00;2.09;Cent/kWh
09.04.2020 04:00:00;09.04.2020 05:00:00;2.05;Cent/kWh
09.04.2020 05:00:00;09.04.2020 06:00:00;2.27;Cent/kWh
09.04.2020 06:00:00;09.04.2020 07:00:00;2.77;Cent/kWh
09.04.2020 07:00:00;09.04.2020 08:00:00;2.97;Cent/kWh
09.04.2020 08:00:00;09.04.2020 09:00:00;2.95;Cent/kWh
09.04.2020 09:00:00;09.04.2020 10:00:00;2.52;Cent/kWh
09.04.2020 10:00:00;09.04.2020 11:00:00;2.24;Cent/kWh
09.04.2020 11:00:00;09.04.2020 12:00:00;2.13;Cent/kWh
09.04.2020 12:00:00;09.04.2020 13:00:00;1.94;Cent/kWh
09.04.2020 13:00:00;09.04.2020 14:00:00;1.74;Cent/kWh
09.04.2020 14:00:00;09.04.2020 15:00:00;1.60;Cent/kWh
09.04.2020 15:00:00;09.04.2020 16:00:00;1.64;Cent/kWh
09.04.2020 16:00:00;09.04.2020 17:00:00;1.79;Cent/kWh
09.04.2020 17:00:00;09.04.2020 18:00:00;2.32;Cent/kWh
09.04.2020 18:00:00;09.04.2020 19:00:00;2.66;Cent/kWh
09.04.2020 19:00:00;09.04.2020 20:00:00;3.09;Cent/kWh
09.04.2020 20:00:00;09.04.2020 21:00:00;3.14;Cent/kWh
09.04.2020 21:00:00;09.04.2020 22:00:00;3.00;Cent/kWh
09.04.2020 22:00:00;09.04.2020 23:00:00;2.79;Cent/kWh
09.04.2020 23:00:00;10.04.2020 00:00:00;2.50;Cent/kWh
10.04.2020 00:00:00;10.04.2020 01:00:00;2.51;Cent/kWh
10.04.2020 01:00:00;10.04.2020 02:00:00;2.50;Cent/kWh
10.04.2020 02:00:00;10.04.2020 03:00:00;2.20;Cent/kWh
10.04.2020 03:00:00;10.04.2020 04:00:00;2.46;Cent/kWh
10.04.2020 04:00:00;10.04.2020 05:00:00;2.40;Cent/kWh
10.04.2020 05:00:00;10.04.2020 06:00:00;2.50;Cent/kWh
10.04.2020 06:00:00;10.04.2020 07:00:00;2.71;Cent/kWh
10.04.2020 07:00:00;10.04.2020 08:00:00;2.86;Cent/kWh
10.04.2020 08:00:00;10.04.2020 09:00:00;2.80;Cent/kWh
10.04.2020 09:00:00;10.04.2020 10:00:00;2.46;Cent/kWh
10.04.2020 10:00:00;10.04.2020 11:00:00;1.80;Cent/kWh
10.04.2020 11:00:00;10.04.2020 12:00:00;1.71;Cent/kWh
10.04.2020 12:00:00;10.04.2020 13:00:00;1.40;Cent/kWh
10.04.2020 13:00:00;10.04.2020 14:00:00;1.06;Cent/kWh
10.04.2020 14:00:00;10.04.2020 15:00:00;0.92;Cent/kWh
10.04.2020 15:00:00;10.04.2020 16:00:00;1.00;Cent/kWh
10.04.2020 16:00:00;10.04.2020 17:00:00;1.40;Cent/kWh
10.04.2020 17:00:00;10.04.2020 18:00:00;2.45;Cent/kWh
10.04.2020 18:00:00;10.04.2020 19:00:00;2.70;Cent/kWh
10.04.2020 19:00:00;10.04.2020 20:00:00;3.01;Cent/kWh
10.04.2020 20:00:00;10.04.2020 21:00:00;3.32;Cent/kWh
10.04.2020 21:00:00;10.04.2020 22:00:00;2.94;Cent/kWh
10.04.2020 22:00:00;10.04.2020 23:00:00;2.80;Cent/kWh
10.04.2020 23:00:00;11.04.2020 00:00:00;2.52;Cent/kWh
11.04.2020 00:00:00;11.04.2020 01:00:00;2.42;Cent/kWh
11.04.2020 01:00:00;11.04.2020 02:00:00;2.18;Cent/kWh
11.04.2020 02:00:00;11.04.2020 03:00:00;2.01;Cent/kWh
11.04.2020 03:00:00;11.04.2020 04:00:00;2.11;Cent/kWh
11.04.2020 04:00:00;11.04.2020 05:00:00;2.30;Cent/kWh
11.04.2020 05:00:00;11.04.2020 06:00:00;2.47;Cent/kWh
11.04.2020 06:00:00;11.04.2020 07:00:00;2.49;Cent/kWh
11.04.2020 07:00:00;11.04.2020 08:00:00;2.52;Cent/kWh
11.04.2020 08:00:00;11.04.2020 09:00:00;2.50;Cent/kWh
11.04.2020 09:00:00;11.04.2020 10:00:00;2.08;Cent/kWh
11.04.2020 10:00:00;11.04.2020 11:00:00;1.43;Cent/kWh
11.04.2020 11:00:00;11.04.2020 12:00:00;1.16;Cent/kWh
11.04.2020 12:00:00;11.04.2020 13:00:00;1.23;Cent/kWh
11.04.2020 13:00:00;11.04.2020 14:00:00;0.86;Cent/kWh
11.04.2020 14:00:00;11.04.2020 15:00:00;0.51;Cent/kWh
11.04.2020 15:00:00;11.04.2020 16:00:00;0.73;Cent/kWh
11.04.2020 16:00:00;11.04.2020 17:00:00;1.40;Cent/kWh
11.04.2020 17:00:00;11.04.2020 18:00:00;2.00;Cent/kWh
11.04.2020 18:00:00;11.04.2020 19:00:00;2.76;Cent/kWh
11.04.2020 19:00:00;11.04.2020 20:00:00;3.33;Cent/kWh
11.04.2020 20:00:00;11.04.2020 21:00:00;3.39;Cent/kWh
11.04.2020 21:00:00;11.04.2020 22:00:00;2.74;Cent/kWh
11.04.2020 22:00:00;11.04.2020 23:00:00;2.49;Cent/kWh
11.04.2020 23:00:00;12.04.2020 00:00:00;2.18;Cent/kWh
12.04.2020 00:00:00;12.04.2020 01:00:00;2.18;Cent/kWh
12.04.2020 01:00:00;12.04.2020 02:00:00;1.90;Cent/kWh
12.04.2020 02:00:00;12.04.2020 03:00:00;1.67;Cent/kWh
12.04.2020 03:00:00;12.04.2020 04:00:00;1.44;Cent/kWh
12.04.2020 04:00:00;12.04.2020 05:00:00;1.41;Cent/kWh
12.04.2020 05:00:00;12.04.2020 06:00:00;1.50;Cent/kWh
12.04.2020 06:00:00;12.04.2020 07:00:00;1.57;Cent/kWh
12.04.2020 07:00:00;12.04.2020 08:00:00;1.60;Cent/kWh
12.04.2020 08:00:00;12.04.2020 09:00:00;1.41;Cent/kWh
12.04.2020 09:00:00;12.04.2020 10:00:00;1.00;Cent/kWh
12.04.2020 10:00:00;12.04.2020 11:00:00;0.52;Cent/kWh
12.04.2020 11:00:00;12.04.2020 12:00:00;0.49;Cent/kWh
12.04.2020 12:00:00;12.04.2020 13:00:00;0.50;Cent/kWh
12.04.2020 13:00:00;12.04.2020 14:00:00;0.18;Cent/kWh
12.04.2020 14:00:00;12.04.2020 15:00:00;0.00;Cent/kWh
12.04.2020 15:00:00;12.04.2020 16:00:00;0.02;Cent/kWh
12.04.2020 16:00:00;12.04.2020 17:00:00;0.30;Cent/kWh
12.04.2020 17:00:00;12.04.2020 18:00:00;0.41;Cent/kWh
12.04.2020 18:00:00;12.04.2020 19:00:00;1.81;Cent/kWh
12.04.2020 19:00:00;12.04.2020 20:00:00;2.52;Cent/kWh
12.04.2020 20:00:00;12.04.2020 21:00:00;2.38;Cent/kWh
12.04.2020 21:00:00;12.04.2020 22:00:00;2.20;Cent/kWh
12.04.2020 22:00:00;12.04.2020 23:00:00;1.95;Cent/kWh
12.04.2020 23:00:00;13.04.2020 00:00:00;0.82;Cent/kWh
13.04.2020 00:00:00;13.04.2020 01:00:00;1.03;Cent/kWh
13.04.2020 01:00:00;13.04.2020 02:00:00;0.01;Cent/kWh
13.04.2020 02:00:00;13.04.2020 03:00:00;0.17;Cent/kWh
13.04.2020 03:00:00;13.04.2020 04:00:00;0.08;Cent/kWh
13.04.2020 04:00:00;13.04.2020 05:00:00;0.00;Cent/kWh
13.04.2020 05:00:00;13.04.2020 06:00:00;-0.01;Cent/kWh
13.04.2020 06:00:00;13.04.2020 07:00:00;-0.24;Cent/kWh
13.04.2020 07:00:00;13.04.2020 08:00:00;-0.50;Cent/kWh
13.04.2020 08:00:00;13.04.2020 09:00:00;-0.59;Cent/kWh
13.04.2020 09:00:00;13.04.2020 10:00:00;-0.48;Cent/kWh
13.04.2020 10:00:00;13.04.2020 11:00:00;-0.50;Cent/kWh
13.04.2020 11:00:00;13.04.2020 12:00:00;-1.53;Cent/kWh
13.04.2020 12:00:00;13.04.2020 13:00:00;-4.08;Cent/kWh
13.04.2020 13:00:00;13.04.2020 14:00:00;-5.64;Cent/kWh
13.04.2020 14:00:00;13.04.2020 15:00:00;-6.72;Cent/kWh
13.04.2020 15:00:00;13.04.2020 16:00:00;-7.77;Cent/kWh
13.04.2020 16:00:00;13.04.2020 17:00:00;-7.10;Cent/kWh
13.04.2020 17:00:00;13.04.2020 18:00:00;-3.69;Cent/kWh
13.04.2020 18:00:00;13.04.2020 19:00:00;0.00;Cent/kWh
13.04.2020 19:00:00;13.04.2020 20:00:00;1.20;Cent/kWh
13.04.2020 20:00:00;13.04.2020 21:00:00;1.16;Cent/kWh
13.04.2020 21:00:00;13.04.2020 22:00:00;0.79;Cent/kWh
13.04.2020 22:00:00;13.04.2020 23:00:00;1.07;Cent/kWh
13.04.2020 23:00:00;14.04.2020 00:00:00;1.08;Cent/kWh
14.04.2020 00:00:00;14.04.2020 01:00:00;0.38;Cent/kWh
14.04.2020 01:00:00;14.04.2020 02:00:00;0.44;Cent/kWh
14.04.2020 02:00:00;14.04.2020 03:00:00;0.46;Cent/kWh
14.04.2020 03:00:00;14.04.2020 04:00:00;0.44;Cent/kWh
14.04.2020 04:00:00;14.04.2020 05:00:00;0.57;Cent/kWh
14.04.2020 05:00:00;14.04.2020 06:00:00;1.59;Cent/kWh
14.04.2020 06:00:00;14.04.2020 07:00:00;2.52;Cent/kWh
14.04.2020 07:00:00;14.04.2020 08:00:00;3.17;Cent/kWh
14.04.2020 08:00:00;14.04.2020 09:00:00;3.02;Cent/kWh
14.04.2020 09:00:00;14.04.2020 10:00:00;2.37;Cent/kWh
14.04.2020 10:00:00;14.04.2020 11:00:00;2.19;Cent/kWh
14.04.2020 11:00:00;14.04.2020 12:00:00;1.97;Cent/kWh
14.04.2020 12:00:00;14.04.2020 13:00:00;1.71;Cent/kWh
14.04.2020 13:00:00;14.04.2020 14:00:00;1.61;Cent/kWh
14.04.2020 14:00:00;14.04.2020 15:00:00;1.35;Cent/kWh
14.04.2020 15:00:00;14.04.2020 16:00:00;1.50;Cent/kWh
14.04.2020 16:00:00;14.04.2020 17:00:00;1.91;Cent/kWh
14.04.2020 17:00:00;14.04.2020 18:00:00;2.32;Cent/kWh
14.04.2020 18:00:00;14.04.2020 19:00:00;2.59;Cent/kWh
14.04.2020 19:00:00;14.04.2020 20:00:00;3.15;Cent/kWh
14.04.2020 20:00:00;14.04.2020 21:00:00;3.76;Cent/kWh
14.04.2020 21:00:00;14.04.2020 22:00:00;2.90;Cent/kWh
14.04.2020 22:00:00;14.04.2020 23:00:00;2.59;Cent/kWh
14.04.2020 23:00:00;15.04.2020 00:00:00;2.37;Cent/kWh
15.04.2020 00:00:00;15.04.2020 01:00:00;1.99;Cent/kWh
15.04.2020 01:00:00;15.04.2020 02:00:00;1.71;Cent/kWh
15.04.2020 02:00:00;15.04.2020 03:00:00;1.68;Cent/kWh
15.04.2020 03:00:00;15.04.2020 04:00:00;1.61;Cent/kWh
15.04.2020 04:00:00;15.04.2020 05:00:00;1.66;Cent/kWh
15.04.2020 05:00:00;15.04.2020 06:00:00;1.91;Cent/kWh
15.04.2020 06:00:00;15.04.2020 07:00:00;2.50;Cent/kWh
15.04.2020 07:00:00;15.04.2020 08:00:00;2.60;Cent/kWh
15.04.2020 08:00:00;15.04.2020 09:00:00;2.50;Cent/kWh
15.04.2020 09:00:00;15.04.2020 10:00:00;2.12;Cent/kWh
15.04.2020 10:00:00;15.04.2020 11:00:00;1.48;Cent/kWh
15.04.2020 11:00:00;15.04.2020 12:00:00;1.42;Cent/kWh
15.04.2020 12:00:00;15.04.2020 13:00:00;1.45;Cent/kWh
15.04.2020 13:00:00;15.04.2020 14:00:00;0.80;Cent/kWh
15.04.2020 14:00:00;15.04.2020 15:00:00;0.60;Cent/kWh
15.04.2020 15:00:00;15.04.2020 16:00:00;0.81;Cent/kWh
15.04.2020 16:00:00;15.04.2020 17:00:00;1.21;Cent/kWh
15.04.2020 17:00:00;15.04.2020 18:00:00;2.19;Cent/kWh
15.04.2020 18:00:00;15.04.2020 19:00:00;2.70;Cent/kWh
15.04.2020 19:00:00;15.04.2020 20:00:00;3.58;Cent/kWh
15.04.2020 20:00:00;15.04.2020 21:00:00;4.01;Cent/kWh
15.04.2020 21:00:00;15.04.2020 22:00:00;2.94;Cent/kWh
15.04.2020 22:00:00;15.04.2020 23:00:00;2.60;Cent/kWh
15.04.2020 23:00:00;16.04.2020 00:00:00;2.50;Cent/kWh
16.04.2020 00:00:00;16.04.2020 01:00:00;2.08;Cent/kWh
16.04.2020 01:00:00;16.04.2020 02:00:00;2.06;Cent/kWh
16.04.2020 02:00:00;16.04.2020 03:00:00;2.10;Cent/kWh
16.04.2020 03:00:00;16.04.2020 04:00:00;2.11;Cent/kWh
16.04.2020 04:00:00;16.04.2020 05:00:00;2.11;Cent/kWh
16.04.2020 05:00:00;16.04.2020 06:00:00;2.37;Cent/kWh
16.04.2020 06:00:00;16.04.2020 07:00:00;2.62;Cent/kWh
16.04.2020 07:00:00;16.04.2020 08:00:00;3.34;Cent/kWh
16.04.2020 08:00:00;16.04.2020 09:00:00;3.09;Cent/kWh
16.04.2020 09:00:00;16.04.2020 10:00:00;2.50;Cent/kWh
16.04.2020 10:00:00;16.04.2020 11:00:00;2.15;Cent/kWh
16.04.2020 11:00:00;16.04.2020 12:00:00;1.95;Cent/kWh
16.04.2020 12:00:00;16.04.2020 13:00:00;1.62;Cent/kWh
16.04.2020 13:00:00;16.04.2020 14:00:00;1.53;Cent/kWh
16.04.2020 14:00:00;16.04.2020 15:00:00;1.51;Cent/kWh
16.04.2020 15:00:00;16.04.2020 16:00:00;1.63;Cent/kWh
16.04.2020 16:00:00;16.04.2020 17:00:00;1.93;Cent/kWh
16.04.2020 17:00:00;16.04.2020 18:00:00;2.50;Cent/kWh
16.04.2020 18:00:00;16.04.2020 19:00:00;2.75;Cent/kWh
16.04.2020 19:00:00;16.04.2020 20:00:00;4.11;Cent/kWh
16.04.2020 20:00:00;16.04.2020 21:00:00;4.66;Cent/kWh
16.04.2020 21:00:00;16.04.2020 22:00:00;3.12;Cent/kWh
16.04.2020 22:00:00;16.04.2020 23:00:00;2.60;Cent/kWh
16.04.2020 23:00:00;17.04.2020 00:00:00;2.37;Cent/kWh
17.04.2020 00:00:00;17.04.2020 01:00:00;2.21;Cent/kWh
17.04.2020 01:00:00;17.04.2020 02:00:00;2.16;Cent/kWh
17.04.2020 02:00:00;17.04.2020 03:00:00;2.11;Cent/kWh
17.04.2020 03:00:00;17.04.2020 04:00:00;2.20;Cent/kWh
17.04.2020 04:00:00;17.04.2020 05:00:00;2.25;Cent/kWh
17.04.2020 05:00:00;17.04.2020 06:00:00;2.44;Cent/kWh
17.04.2020 06:00:00;17.04.2020 07:00:00;3.00;Cent/kWh
17.04.2020 07:00:00;17.04.2020 08:00:00;4.31;Cent/kWh
17.04.2020 08:00:00;17.04.2020 09:00:00;4.13;Cent/kWh
17.04.2020 09:00:00;17.04.2020 10:00:00;2.64;Cent/kWh
17.04.2020 10:00:00;17.04.2020 11:00:00;2.49;Cent/kWh
17.04.2020 11:00:00;17.04.2020 12:00:00;2.39;Cent/kWh
17.04.2020 12:00:00;17.04.2020 13:00:00;2.04;Cent/kWh
17.04.2020 13:00:00;17.04.2020 14:00:00;1.81;Cent/kWh
17.04.2020 14:00:00;17.04.2020 15:00:00;1.85;Cent/kWh
17.04.2020 15:00:00;17.04.2020 16:00:00;2.19;Cent/kWh
17.04.2020 16:00:00;17.04.2020 17:00:00;2.18;Cent/kWh
17.04.2020 17:00:00;17.04.2020 18:00:00;2.52;Cent/kWh
17.04.2020 18:00:00;17.04.2020 19:00:00;3.34;Cent/kWh
17.04.2020 19:00:00;17.04.2020 20:00:00;4.34;Cent/kWh
17.04.2020 20:00:00;17.04.2020 21:00:00;3.89;Cent/kWh
17.04.2020 21:00:00;17.04.2020 22:00:00;3.02;Cent/kWh
17.04.2020 22:00:00;17.04.2020 23:00:00;2.49;Cent/kWh
17.04.2020 23:00:00;18.04.2020 00:00:00;2.08;Cent/kWh
18.04.2020 00:00:00;18.04.2020 01:00:00;2.21;Cent/kWh
18.04.2020 01:00:00;18.04.2020 02:00:00;2.01;Cent/kWh
18.04.2020 02:00:00;18.04.2020 03:00:00;1.88;Cent/kWh
18.04.2020 03:00:00;18.04.2020 04:00:00;1.81;Cent/kWh
18.04.2020 04:00:00;18.04.2020 05:00:00;1.86;Cent/kWh
18.04.2020 05:00:00;18.04.2020 06:00:00;1.91;Cent/kWh
18.04.2020 06:00:00;18.04.2020 07:00:00;2.16;Cent/kWh
18.04.2020 07:00:00;18.04.2020 08:00:00;2.38;Cent/kWh
18.04.2020 08:00:00;18.04.2020 09:00:00;2.39;Cent/kWh
18.04.2020 09:00:00;18.04.2020 10:00:00;2.43;Cent/kWh
18.04.2020 10:00:00;18.04.2020 11:00:00;1.73;Cent/kWh
18.04.2020 11:00:00;18.04.2020 12:00:00;1.66;Cent/kWh
18.04.2020 12:00:00;18.04.2020 13:00:00;1.68;Cent/kWh
18.04.2020 13:00:00;18.04.2020 14:00:00;1.28;Cent/kWh
18.04.2020 14:00:00;18.04.2020 15:00:00;1.23;Cent/kWh
18.04.2020 15:00:00;18.04.2020 16:00:00;1.28;Cent/kWh
18.04.2020 16:00:00;18.04.2020 17:00:00;1.51;Cent/kWh
18.04.2020 17:00:00;18.04.2020 18:00:00;2.41;Cent/kWh
18.04.2020 18:00:00;18.04.2020 19:00:00;2.60;Cent/kWh
18.04.2020 19:00:00;18.04.2020 20:00:00;2.69;Cent/kWh
18.04.2020 20:00:00;18.04.2020 21:00:00;2.65;Cent/kWh
18.04.2020 21:00:00;18.04.2020 22:00:00;2.38;Cent/kWh
18.04.2020 22:00:00;18.04.2020 23:00:00;2.12;Cent/kWh
18.04.2020 23:00:00;19.04.2020 00:00:00;1.84;Cent/kWh
19.04.2020 00:00:00;19.04.2020 01:00:00;1.66;Cent/kWh
19.04.2020 01:00:00;19.04.2020 02:00:00;1.44;Cent/kWh
19.04.2020 02:00:00;19.04.2020 03:00:00;1.28;Cent/kWh
19.04.2020 03:00:00;19.04.2020 04:00:00;1.01;Cent/kWh
19.04.2020 04:00:00;19.04.2020 05:00:00;1.10;Cent/kWh
19.04.2020 05:00:00;19.04.2020 06:00:00;1.13;Cent/kWh
19.04.2020 06:00:00;19.04.2020 07:00:00;1.17;Cent/kWh
19.04.2020 07:00:00;19.04.2020 08:00:00;1.12;Cent/kWh
19.04.2020 08:00:00;19.04.2020 09:00:00;1.40;Cent/kWh
19.04.2020 09:00:00;19.04.2020 10:00:00;1.25;Cent/kWh
19.04.2020 10:00:00;19.04.2020 11:00:00;1.09;Cent/kWh